Skip Page Navigation
NASA JPL Caltech
NASA Logo - Jet Propulsion Laboratory + View the NASA Portal
+ Near-Earth Object (NEO) Program
Search JPL
JPL Home Earth Solar System Stars & Galaxies Technology
JPL Solar System Dynamics
BODIES ORBITS EPHEMERIDES TOOLS PHYSICAL DATA DISCOVERY FAQ SITE MAP
JPL Small-Body Database Browser
Search: [ help ]  
165612 Stackpole (2001 FP86)
Classification: Main-belt Asteroid          SPK-ID: 2165612
Ephemeris | Orbit Diagram | Orbital Elements | Physical Parameters | Discovery Circumstances ]

[ show orbit diagram ]
Orbital Elements at Epoch 2456800.5 (2014-May-23.0) TDB
Reference: JPL 3 (heliocentric ecliptic J2000)
 Element Value Uncertainty (1-sigma)   Units 
e .04147317979572161 1.3958e-07  
a 2.564288013027987 4.0388e-08 AU
q 2.457938835215663 3.521e-07 AU
i 1.705052324136209 1.1907e-05 deg
node 221.802229272439 0.00033148 deg
peri 313.0210678131737 0.00035832 deg
M 84.19291094862822 0.00012617 deg
tp 2456449.730636385912
(2013-Jun-06.23063639)
0.00052453 JED
period 1499.852772380346
4.11
3.5434e-05
9.701e-08
d
yr
n .2400235587314753 5.6706e-09 deg/d
Q 2.67063719084031 4.2063e-08 AU
  Orbit Determination Parameters
   # obs. used (total)      165  
   data-arc span      7238 days (19.82 yr)  
   first obs. used      1994-09-02  
   last obs. used      2014-06-27  
   planetary ephem.      DE431  
   SB-pert. ephem.      SB431-BIG16  
   condition code      0  
   fit RMS      .68168  
   data source      ORB  
   producer      Otto Matic  
   solution date      2014-Jul-14 15:49:05  

Additional Information
 Earth MOID = 1.46243 AU 
 T_jup = 3.431 
[ show covariance matrix ]

Ephemeris | Orbit Diagram | Orbital Elements | Physical Parameters | Discovery Circumstances ]

Physical Parameter Table
Parameter Symbol Value Units Sigma Reference Notes
absolute magnitude H 16.3 mag n/a MPO257745  

165612 Stackpole           Discovered 2001 Mar. 23 by D. Healy at Junk Bond Observatory.
Michael Stackpole (b. 1957), currently living in Arizona, is a prolific and popular science fiction author, as well as a popular advocate for science and rational thinking through his writing, media appearances and public speaking.
NOTE: some special characters may not display properly (any characters within {} are an attempt to place the proper accent above a character)
Reference: 20080321/MPCPages.arcLast Updated: 2008-03-26

Alternate Designations
 2001 FP86 = 1999 VJ231 = 2005 EV76 
Ephemeris | Orbit Diagram | Orbital Elements | Physical Parameters | Discovery Circumstances ]
ABOUT SSD CREDITS/AWARDS PRIVACY/COPYRIGHT GLOSSARY LINKS
FirstGov 2014-Jul-28 10:20 UT
(server date/time)  
NASA Home Page
Site Manager:   Donald K. Yeomans
Webmaster  Alan B. Chamberlin